Flag for U.S.A. Weather past 2 weeks in Allentown, Pennsylvania, U.S.A.

Now
58 °F

Clear.


Feels Like: 56 °F
Forecast: 45 / 59 °F
Wind: 9 mph from Southwest

Location: Lehigh Valley International Airport

Current Time: Oct 25, 2014 at 9:36:07 PM

Latest Report: Oct 25, 2014 at 8:51 PM


Visibility: 10 mi

Pressure: 29.63 "Hg

Humidity: 62%

Dew point: 45 °F

Location of AllentownLocation

Historic Weather in Allentown — Graph

°F

Allentown temperature yesterday

Maximum temperature yesterday: 68 °F (at 2:51 PM)
Minimum temperature yesterday: 53 °F (at 12:51 AM)
Average temperature yesterday: 59 °F

Past Weeks' High & Low Weather Summary

 TemperatureHumidityPressure
High79 °F (Oct 14, 3:51 PM)100% (Oct 11, 11:55 PM)30.32 "Hg (Oct 11, 11:55 PM)
Low33 °F (Oct 20, 6:51 AM)34% (Oct 12, 2:51 PM)29.59 "Hg (Oct 18, 5:51 AM)
Average57 °F71%29.94 "Hg
* Reported Oct 10 7:51 PM — Oct 25 7:51 PM, Allentown, Weather by CustomWeather, © 2014

Note: Actual official high and low records may vary slightly from our data, if they occured in-between our weather recording intervals... More about our weather records

Advertising

Allentown weather history for previous 24 hours

 ConditionsComfort  
Time TempWeatherWind HumidityBarometerVisibility
7:51 PM
Oct 25
63 °FOvercast.9 mph50%29.65 "Hg10 mi
6:51 PM60 °FPartly sunny.8 mph53%29.66 "Hg10 mi
5:51 PM64 °FPartly sunny.12 mph47%29.66 "Hg10 mi
4:51 PM66 °FPassing clouds.14 mph43%29.68 "Hg10 mi
3:51 PM68 °FSunny.15 mph40%29.70 "Hg10 mi
2:51 PM68 °FSunny.15 mph38%29.73 "Hg10 mi
1:51 PM67 °FPartly sunny.17 mph41%29.75 "Hg10 mi
12:51 PM66 °FPassing clouds.15 mph42%29.78 "Hg10 mi
11:51 AM65 °FSunny.12 mph44%29.83 "Hg10 mi
10:51 AM62 °FSunny.3 mph48%29.86 "Hg10 mi
9:51 AM56 °FSunny.6 mph53%29.88 "Hg10 mi
8:51 AM48 °FSunny.3 mph66%29.90 "Hg10 mi
7:51 AM41 °FClear.No wind74%29.91 "Hg10 mi
6:51 AM41 °FClear.No wind70%29.90 "Hg10 mi
5:51 AM41 °FClear.No wind70%29.90 "Hg10 mi
4:51 AM43 °FClear.No wind65%29.90 "Hg10 mi
3:51 AM46 °FClear.No wind61%29.90 "Hg10 mi
2:51 AM46 °FClear.No wind56%29.91 "Hg10 mi
1:51 AM51 °FClear.6 mph42%29.90 "Hg10 mi
12:51 AM51 °FClear.3 mph44%29.89 "Hg10 mi
11:51 PM
Oct 24
54 °FClear.7 mph47%29.88 "Hg10 mi
10:51 PM55 °FClear.3 mph51%29.88 "Hg10 mi
9:51 PM59 °FClear.No wind46%29.88 "Hg10 mi
Weather by CustomWeather, © 2014

See weather overviewHow to use our weather pages